Tracking 28779 objects as of 15-Apr-2024
HD Live streaming from Space Station
objects crossing your sky now

FENGYUN 1C DEB

Track FENGYUN 1C DEB now!
10-day predictions


NORAD ID: 37418
Int'l Code: 1999-025EGL
Perigee: 849.9 km
Apogee: 2,589.1 km
Inclination: 98.6 °
Period: 120.7 minutes
Semi major axis: 8090 km
RCS: 0.0014 m2 (small)
Launch date: May 10, 1999
Source: People's Republic of China (PRC)
Launch site: Taiyaun Space Center, China (TSC)

Note: This is SATELLITE DEBRIS
Your satellite tracking list
Your tracking list is empty




NASA's NSSDC Master Catalog

Two Line Element Set (TLE):
1 37418U 99025EGL 24103.00472010 -.00000039  00000-0 -55573-4 0  9995
2 37418  98.6146 193.4685 1074797  83.3310 288.8689 11.92996534422071
Source of the keplerian elements: AFSPC